K7MT-WX Weather Reports


time (UTC)temp
F
wind
direction
speed
knots
gust
knots
rain 1hr
in
rain 24hr
in
rain mn
in
humidity
%
barometer
mb
20260502224209 70 220 2.6 5.2 0.00 0.00 0.00 29 1015.2
20260502222639 70 219 2.6 2.6 0.00 0.00 0.00 30 1015.4
20260502221109 70 246 2.6 2.6 0.00 0.00 0.00 30 1015.5
20260502215609 70 226 0.9 1.7 0.00 0.00 0.00 31 1015.8
20260502214039 69 205 1.7 2.6 0.00 0.00 0.00 31 1016.2
20260502212539 69 165 4.3 10.4 0.00 0.00 0.00 33 1016.3
20260502211009 68 215 2.6 4.3 0.00 0.00 0.00 33 1016.5
20260502205509 66 159 2.6 5.2 0.00 0.00 0.00 32 1016.7
20260502203939 66 220 1.7 2.6 0.00 0.00 0.00 35 1016.9
20260502202439 65 194 2.6 5.2 0.00 0.00 0.00 36 1017.0
20260502200939 65 182 1.7 2.6 0.00 0.00 0.00 34 1017.2
20260502195409 66 170 2.6 2.6 0.00 0.00 0.00 32 1017.4
20260502193909 67 161 2.6 2.6 0.00 0.00 0.00 30 1017.5
20260502192339 69 213 2.6 2.6 0.00 0.00 0.00 29 1017.7
20260502190839 67 277 1.7 2.6 0.00 0.00 0.00 30 1017.8
20260502185339 68 198 2.6 5.2 0.00 0.00 0.00 32 1018.0
20260502183809 66 238 1.7 4.3 0.00 0.00 0.00 34 1018.2
20260502182309 65 129 2.6 5.2 0.00 0.00 0.00 33 1018.4
20260502180739 64 156 4.3 6.1 0.00 0.00 0.00 37 1018.7
20260502163639 59 161 2.6 2.6 0.00 0.00 0.00 46 1019.4
20260502162139 58 172 1.7 2.6 0.00 0.00 0.00 45 1019.5
20260502160609 57 134 1.7 4.3 0.00 0.00 0.00 47 1019.6
20260502152009 54 133 0.9 1.7 0.00 0.00 0.00 46 1020.0
20260502150439 52 54 0.9 2.6 0.00 0.00 0.00 50 1020.0
20260502130239 35 281 0.0 0.0 0.00 0.00 0.00 80 1019.4
20260502123239 33 240 0.0 0.0 0.00 0.00 0.00 83 1019.0
20260502121709 32 238 0.0 0.0 0.00 0.00 0.00 83 1018.9
20260502120139 32 238 0.0 0.0 0.00 0.00 0.00 82 1018.9
20260502114639 33 238 0.0 0.0 0.00 0.00 0.00 80 1018.7
20260502113139 34 238 0.0 0.0 0.00 0.00 0.00 80 1018.7
20260502111639 35 266 0.0 0.0 0.00 0.00 0.00 77 1018.5
20260502110109 35 266 0.0 0.0 0.00 0.00 0.00 76 1018.4
20260502104609 35 266 0.0 0.9 0.00 0.00 0.00 78 1018.2
20260502103039 36 290 0.0 0.0 0.00 0.00 0.00 76 1018.3
20260502101509 36 290 0.0 0.0 0.00 0.00 0.00 76 1018.2
20260502091509 38 289 0.0 0.0 0.00 0.00 0.00 70 1017.8
20260502071309 43 297 0.0 0.0 0.00 0.00 0.00 61 1017.4
20260502065739 43 227 0.0 0.0 0.00 0.00 0.00 62 1017.4
20260502064239 43 275 0.0 0.0 0.00 0.00 0.00 60 1017.3
20260502062739 44 275 0.0 0.0 0.00 0.00 0.00 60 1017.2
20260502061209 45 275 0.0 0.0 0.00 0.00 0.00 59 1017.1
20260502055709 47 275 0.0 0.0 0.00 0.00 0.00 56 1017.1
20260502054209 48 293 0.0 0.0 0.00 0.00 0.00 53 1017.0
20260502052639 48 295 0.0 0.0 0.00 0.00 0.00 52 1016.9
20260502051139 49 295 0.0 0.0 0.00 0.00 0.00 52 1016.9
20260502045609 49 295 0.0 0.0 0.00 0.00 0.00 52 1016.9
20260502044039 49 22 0.0 0.0 0.00 0.00 0.00 56 1016.8
20260502042539 49 44 0.0 0.0 0.00 0.00 0.00 57 1016.8
20260502041009 50 44 0.0 0.0 0.00 0.00 0.00 57 1016.6
20260502035439 51 44 0.0 0.0 0.00 0.00 0.00 55 1016.5
20260502033909 52 42 0.9 1.7 0.00 0.00 0.00 50 1016.3
20260502032339 55 229 0.0 0.0 0.00 0.00 0.00 44 1016.0
20260502030839 58 274 0.0 0.0 0.00 0.00 0.00 39 1015.8
20260502025309 61 268 0.0 0.9 0.00 0.00 0.00 36 1015.6
20260502023809 62 277 0.9 1.7 0.00 0.00 0.00 35 1015.5
20260502022309 65 273 0.0 0.9 0.00 0.00 0.00 33 1015.4
20260502020809 67 268 1.7 2.6 0.00 0.00 0.00 30 1015.3
20260502015239 68 291 1.7 2.6 0.00 0.00 0.00 28 1015.3
20260502013739 69 290 4.3 5.2 0.00 0.00 0.00 27 1015.4
20260502012239 70 293 4.3 4.3 0.00 0.00 0.00 26 1015.4
20260502010709 71 281 2.6 2.6 0.00 0.00 0.00 24 1015.5
20260502005209 71 287 4.3 5.2 0.00 0.00 0.00 24 1015.5
20260502003709 71 295 2.6 4.3 0.00 0.00 0.00 22 1015.6
20260502002209 72 269 4.3 7.0 0.00 0.00 0.00 21 1015.7
20260502000639 72 283 1.7 2.6 0.00 0.00 0.00 22 1015.7
20260501235109 72 290 2.6 4.3 0.00 0.00 0.00 20 1015.9
20260501233609 72 281 4.3 7.0 0.00 0.00 0.00 21 1015.9
20260501232109 72 276 2.6 4.3 0.00 0.00 0.00 21 1016.0
20260501230539 72 294 1.7 2.6 0.00 0.00 0.00 20 1016.2
20260501225039 72 253 1.7 2.6 0.00 0.00 0.00 20 1016.2